Location: Godiavel Galaoual
(15.2485°N, 12.6604°W)
Time: 13:57:48
(UTC+00:00)

Tiros 1 - All Passes

Search period start: 22 June 2021 00:00
Search period end: 02 July 2021 00:00
Orbit: 630 x 664 km, 48.4° (Epoch: 21 June)

Date Brightness Start Highest point End Pass type
(mag) Time Alt. Az. Time Alt. Az. Time Alt. Az.
22 Jun - 06:52:14 10° S 06:55:41 21° SE 06:59:08 10° ENE daylight
22 Jun - 08:33:31 10° WSW 08:37:38 33° NW 08:41:48 10° NNE daylight
22 Jun - 17:15:17 10° NNW 17:19:45 40° NE 17:24:15 10° ESE daylight
22 Jun - 18:58:26 10° W 19:01:42 18° SW 19:04:59 10° S daylight
23 Jun - 07:16:54 10° SSW 07:21:29 68° SE 07:26:03 10° NE daylight
23 Jun - 09:02:04 10° WNW 09:03:51 12° NW 09:05:38 10° NNW daylight
23 Jun - 16:01:01 10° NNE 16:03:19 13° NE 16:05:37 10° ENE daylight
23 Jun - 17:40:57 10° NW 17:45:40 65° SW 17:50:25 10° SSE daylight
24 Jun - 06:02:17 10° S 06:05:28 18° SE 06:08:38 10° E daylight
24 Jun - 07:43:09 10° WSW 07:47:24 37° NW 07:51:40 10° NNE daylight
24 Jun - 16:25:08 10° NNW 16:29:29 36° NE 16:33:52 10° ESE daylight
24 Jun - 18:07:57 10° W 18:11:29 21° SW 18:15:02 10° S daylight
25 Jun - 06:26:44 10° SSW 06:31:15 60° SE 06:35:47 10° NE daylight
25 Jun - 08:11:19 10° WNW 08:13:34 13° NW 08:15:49 10° NNW daylight
25 Jun - 15:11:15 10° NNE 15:13:01 12° NE 15:14:47 10° ENE daylight
25 Jun - 16:50:42 10° NW 16:55:25 74° SW 17:00:12 10° SE daylight
26 Jun - 05:12:23 10° SSE 05:15:14 16° SE 05:18:06 10° E visible
26 Jun - 06:52:48 10° WSW 06:57:10 41° NW 07:01:31 10° NNE daylight
26 Jun - 15:35:00 10° NNW 15:39:13 32° NE 15:43:28 10° ESE daylight
26 Jun - 17:17:29 10° WNW 17:21:15 23° SW 17:25:01 10° S daylight
27 Jun - 05:36:33 10° SSW 05:41:01 52° SE 05:45:30 10° NE visible
27 Jun - 07:20:38 10° WNW 07:23:17 15° NW 07:25:56 10° N daylight
27 Jun - 14:21:47 10° NNE 14:22:43 10° NE 14:23:39 10° NE daylight
27 Jun - 16:00:27 10° NW 16:05:11 84° SW 16:09:58 10° SE daylight
28 Jun - 04:22:33 10° SSE 04:25:02 14° SE 04:27:29 10° E visible
28 Jun - 06:02:29 10° WSW 06:06:55 47° NW 06:11:21 10° NNE daylight
28 Jun - 14:44:53 10° NNW 14:48:57 28° NE 14:53:02 10° ESE daylight
28 Jun - 16:27:04 10° WNW 16:31:00 26° SW 16:34:58 10° S daylight
29 Jun - 04:46:24 10° SSW 04:50:48 45° SE 04:55:12 10° ENE visible
29 Jun - 06:30:03 10° W 06:33:01 17° NW 06:35:58 10° N daylight
29 Jun - 15:10:12 10° NW 15:14:56 86° NE 15:19:42 10° SE daylight
30 Jun - 03:32:50 10° SSE 03:34:49 12° SE 03:36:46 10° ESE visible
30 Jun - 05:12:09 10° SW 05:16:41 54° NW 05:21:11 10° NNE visible
30 Jun - 13:54:48 10° NNW 13:58:41 25° NE 14:02:36 10° E daylight
30 Jun - 15:36:40 10° WNW 15:40:45 29° SW 15:44:53 10° S daylight
01 Jul - 03:56:15 10° SSW 04:00:35 40° SE 04:04:54 10° ENE visible
01 Jul - 05:39:31 10° W 05:42:45 19° NW 05:45:59 10° N visible
01 Jul - 14:19:59 10° NW 14:24:41 76° NE 14:29:26 10° SE daylight
